Saranac Lake, NY

7:55 PM EDT on May 22, 2018 (GMT -0400)
Adirondack Regional

Weather History for KSLK - September, 2013

Change the Weather History Date:

Monday, September 2, 2013

  Actual Average Record
Temperature  
Mean Temperature 66 °F 59 °F  
Max Temperature 75 °F 72 °F 88 °F (2010)
Min Temperature 57 °F 46 °F 28 °F (2017)
Degree Days  
Heating Degree Days 0 7  
Month to date heating degree days 0 14  
Since 1 July heating degree days 213 254  
Cooling Degree Days 1 1  
Month to date cooling degree days 5 2  
Year to date cooling degree days 176 109  
Growing Degree Days 16 (Base 50)    
Moisture  
Dew Point 62 °F    
Average Humidity 87    
Maximum Humidity 100    
Minimum Humidity 73    
Precipitation  
Precipitation 1.19 in 0.13 in 1.19 in (2013)
Month to date precipitation 1.19 0.24  
Year to date precipitation 30.07 24.78  
Sea Level Pressure  
Sea Level Pressure 29.76 in    
Wind  
Wind Speed 4 mph (SSW)    
Max Wind Speed 21 mph    
Max Gust Speed 29 mph    
Visibility 6 miles    
Events Fog , Rain , Thunderstorm    
T = Trace of Precipitation, MM = Missing Value Source: NWS Daily Summary

Daily Weather History Graph

Daily Weather History Graph

Search for Another Location

Airport or City:

Astronomy

Sep. 02, 2013 Rise Set
Actual Time 6:21 AM EDT 7:30 PM EDT
Civil Twilight 5:51 AM EDT 8:00 PM EDT
Nautical Twilight 5:15 AM EDT 8:36 PM EDT
Astronomical Twilight 4:37 AM EDT 9:14 PM EDT
Moon 3:31 AM EDT (9/2) 5:45 PM EDT (9/2)
Length of Visible Light 14h 09m
Length of Day
13h 09m
Waning Crescent, 8% of the Moon is Illuminated
Sep 2
Waning Crescent
Sep 5
New
Sep 12
First Quarter
Sep 19
Full
Sep 26
Last Quarter

Hourly Weather History & Observations

Time (EDT) Temp. Dew Point Humidity Pressure Visibility Wind Dir Wind Speed Gust Speed Precip Events Conditions
12:51 AM 61.0 °F 60.1 °F 97% 29.83 in 8.0 mi Calm Calm - N/A   Clear
1:51 AM 60.1 °F 59.0 °F 96% 29.82 in 9.0 mi North 3.5 mph - N/A   Clear
2:51 AM 60.1 °F 59.0 °F 96% 29.79 in 7.0 mi Calm Calm - N/A   Partly Cloudy
3:42 AM 60.8 °F 59.0 °F 94% 29.78 in 8.0 mi Calm Calm - N/A Thunderstorm Mostly Cloudy
3:51 AM 63.0 °F 60.1 °F 90% 29.79 in 5.0 mi WSW 8.1 mph 20.7 mph 0.01 in Rain , Thunderstorm Light Thunderstorms and Rain
3:55 AM 64.4 °F 62.6 °F 94% 29.81 in 1.8 mi WSW 10.4 mph 20.7 mph 0.11 in Rain , Thunderstorm Heavy Thunderstorms and Rain
4:15 AM 62.6 °F 62.6 °F 100% 29.80 in 3.0 mi East 5.8 mph - 0.34 in Rain , Thunderstorm Light Thunderstorms and Rain
4:51 AM 62.1 °F 61.0 °F 96% 29.77 in 9.0 mi Calm Calm - 0.35 in   Scattered Clouds
5:33 AM 62.6 °F 62.6 °F 100% 29.80 in 6.0 mi Calm Calm - N/A   Overcast
5:51 AM 62.1 °F 61.0 °F 96% 29.78 in 6.0 mi Calm Calm - N/A   Overcast
6:51 AM 61.0 °F 61.0 °F 100% 29.80 in 2.0 mi Calm Calm - N/A   Overcast
7:16 AM 62.6 °F 60.8 °F 94% 29.81 in 3.0 mi Calm Calm - N/A   Mostly Cloudy
7:23 AM 62.6 °F 60.8 °F 94% 29.81 in 2.5 mi Calm Calm - N/A   Mostly Cloudy
7:31 AM 60.8 °F 60.8 °F 100% 29.81 in 3.0 mi Calm Calm - N/A   Partly Cloudy
7:39 AM 62.6 °F 60.8 °F 94% 29.80 in 2.5 mi Calm Calm - N/A   Partly Cloudy
7:47 AM 62.6 °F 62.6 °F 100% 29.80 in 4.0 mi Calm Calm - N/A   Clear
7:51 AM 63.0 °F 62.1 °F 97% 29.78 in 4.0 mi Calm Calm - N/A   Clear
8:51 AM 64.9 °F 64.0 °F 97% 29.78 in 8.0 mi South 3.5 mph - N/A   Clear
9:51 AM 68.0 °F 64.0 °F 87% 29.78 in 10.0 mi South 3.5 mph - N/A   Clear
10:51 AM 70.0 °F 64.9 °F 84% 29.77 in 10.0 mi WSW 8.1 mph - N/A   Scattered Clouds
11:51 AM 70.0 °F 64.9 °F 84% 29.77 in 10.0 mi WSW 5.8 mph - N/A   Mostly Cloudy
12:14 PM 69.8 °F 64.4 °F 83% 29.79 in 10.0 mi SW 8.1 mph - N/A   Overcast
12:46 PM 71.6 °F 64.4 °F 78% 29.78 in 10.0 mi SW 8.1 mph - N/A   Overcast
1:51 PM 72.0 °F 64.9 °F 78% 29.75 in 10.0 mi SSW 8.1 mph - N/A   Overcast
2:14 PM 73.4 °F 64.4 °F 73% 29.76 in 10.0 mi South 6.9 mph - N/A   Overcast
2:51 PM 72.0 °F 64.9 °F 78% 29.74 in 10.0 mi SW 6.9 mph - N/A   Overcast
3:51 PM 73.9 °F 64.9 °F 73% 29.70 in 10.0 mi SSW 11.5 mph - N/A   Mostly Cloudy
4:51 PM 73.9 °F 66.0 °F 76% 29.68 in 10.0 mi SSW 4.6 mph - 0.03 in   Scattered Clouds
5:51 PM 71.1 °F 66.9 °F 87% 29.68 in 10.0 mi Calm Calm - N/A   Mostly Cloudy
6:23 PM 68.0 °F 66.2 °F 94% 29.71 in 7.0 mi Calm Calm - N/A Thunderstorm Overcast
6:34 PM 66.2 °F 62.6 °F 88% 29.76 in 1.8 mi WNW 15.0 mph 24.2 mph 0.17 in Rain , Thunderstorm Heavy Thunderstorms and Rain
6:48 PM 62.6 °F 60.8 °F 94% 29.76 in 0.8 mi Calm Calm - 0.51 in Rain , Thunderstorm Heavy Thunderstorms and Rain
6:51 PM 62.1 °F 61.0 °F 96% 29.75 in 0.5 mi Calm Calm - 0.60 in Fog , Rain , Thunderstorm Heavy Thunderstorms and Rain
7:00 PM 62.6 °F 60.8 °F 94% 29.76 in 1.2 mi South 9.2 mph - 0.07 in Rain , Thunderstorm Heavy Thunderstorms and Rain
7:04 PM 60.8 °F 60.8 °F 100% 29.75 in 3.0 mi SSW 3.5 mph - 0.09 in Rain , Thunderstorm Heavy Thunderstorms and Rain
7:15 PM 60.8 °F 60.8 °F 100% 29.75 in 1.8 mi South 8.1 mph - 0.14 in Rain , Thunderstorm Heavy Rain
7:26 PM 60.8 °F 60.8 °F 100% 29.73 in 2.5 mi SE 5.8 mph - 0.18 in Rain , Thunderstorm Rain
7:31 PM 60.8 °F 60.8 °F 100% 29.74 in 4.0 mi ESE 3.5 mph - 0.19 in Rain Light Rain
7:51 PM 60.1 °F 59.0 °F 96% 29.73 in 8.0 mi South 3.5 mph - 0.19 in Rain Light Rain
8:51 PM 60.1 °F 60.1 °F 100% 29.70 in 9.0 mi SSW 5.8 mph - 0.01 in   Scattered Clouds
9:51 PM 60.1 °F 59.0 °F 96% 29.71 in 10.0 mi South 4.6 mph - N/A   Clear
10:51 PM 59.0 °F 57.9 °F 96% 29.72 in 10.0 mi SW 4.6 mph - N/A   Scattered Clouds
11:51 PM 57.0 °F 57.0 °F 100% 29.72 in 3.0 mi SSW 3.5 mph - N/A   Partly Cloudy